RH
24 36 38 36 32 32 33 37 38 38 44 47 51 51 53 55 48 45 48 46 43 39 40 41 41 45 49 46 47 48 48 52 49 45 44 42 43 50 55 53 56 55 55 53
20 27 30 29 27 27 27 29 35 37 41 43 46 50 48 55 53 46 45 47 46 45 44 44 44 45 50 43 46 49 51 48 48 44 44 45 52 59 64 72 71 67 61 57
20 23 20 22 21 22 25 27 26 32 42 39 42 46 49 50 55 56 54 49 47 48 45 44 45 46 54 42 41 46 47 47 46 45 45 46 56 64 73 71 66 67 59 49
14 19 17 16 19 18 19 22 21 30 36 42 40 43 38 43 52 54 58 56 50 47 48 46 45 47 51 46 41 44 45 44 43 46 45 48 56 59 61 69 72 71 52 48
13 16 15 16 15 13 18 18 19 23 28 31 38 40 32 43 48 50 56 57 54 48 47 46 44 46 48 47 44 49 48 46 40 42 44 47 53 48 66 64 73 66 49 46
9 11 13 16 11 11 14 17 21 31 31 34 32 33 31 38 38 43 50 58 55 52 51 48 46 47 48 48 43 48 50 47 41 38 43 44 48 48 56 64 68 68 50 43
9 10 14 13 11 10 11 17 23 24 39 36 34 33 33 31 31 35 39 47 51 51 52 52 46 45 48 48 44 44 46 46 43 36 39 43 46 48 51 50 55 65 64 44
11 12 11 12 13 12 11 11 15 24 31 26 33 38 33 32 30 30 38 40 45 52 54 55 49 47 47 48 47 40 41 46 44 42 35 37 41 45 48 40 47 54 60 52
12 13 14 14 14 13 13 12 12 18 27 29 30 35 34 36 32 32 32 32 40 47 50 52 52 49 48 45 47 42 39 43 46 45 38 34 34 35 36 37 37 45 55 58
13 15 15 15 15 14 13 14 14 14 18 30 40 38 40 37 35 34 33 27 36 39 44 47 49 48 46 44 47 48 46 44 43 46 45 39 35 34 34 33 33 38 49 50
15 15 16 16 17 17 18 18 15 15 19 23 24 31 27 31 33 32 31 30 30 40 41 45 45 45 42 44 45 45 44 44 44 46 45 43 38 36 35 35 35 36 39 48
19 18 20 20 20 20 20 20 19 18 15 18 24 20 22 28 28 28 32 32 32 33 38 43 43 41 40 38 39 39 39 38 39 41 42 40 38 38 38 36 35 38 40 47
24 26 26 23 23 24 25 27 24 19 17 18 22 21 24 27 28 28 32 32 30 32 34 40 41 39 40 37 36 35 33 35 36 36 38 38 36 36 37 37 37 40 44 49
27 28 25 27 26 28 30 29 31 23 27 18 17 20 28 25 26 28 33 34 32 31 34 37 36 37 39 39 37 36 35 33 34 36 37 37 36 38 40 39 38 40 42 43
30 31 30 30 30 31 32 36 36 37 38 27 23 27 35 34 35 34 39 36 37 35 35 35 36 35 36 39 41 41 39 36 34 35 37 38 40 43 45 45 45 46 44 43
33 33 30 28 30 32 36 36 40 41 43 41 36 33 45 45 49 50 52 49 48 45 38 38 39 38 35 34 35 37 39 39 36 34 37 42 44 47 49 50 51 54 52 50
38 34 35 33 33 34 37 38 42 44 46 47 51 47 50 58 63 78 56 57 54 51 48 45 44 42 41 39 35 33 37 41 39 37 37 38 42 44 48 51 52 52 53 58
31 39 41 41 37 35 37 41 43 46 46 46 50 52 53 56 68 72 67 63 56 51 50 55 57 51 43 41 38 35 36 35 37 41 40 41 42 44 48 52 53 54 57 59
24 36 46 45 46 40 42 41 41 42 45 45 51 56 59 62 64 67 66 60 55 51 49 45 47 49 46 46 44 40 40 39 38 39 40 44 46 47 49 52 55 57 61 63
34 34 36 45 42 45 41 47 47 46 46 41 46 55 62 58 68 72 67 60 51 48 47 44 41 36 33 37 45 45 41 43 45 47 49 48 49 54 56 58 60 63 65 69
45 46 44 48 47 45 49 51 50 50 41 39 45 47 54 59 59 61 66 63 64 52 47 47 46 43 42 36 37 37 37 37 40 48 55 58 60 59 61 62 60 61 64 67
47 48 50 52 51 52 52 55 58 57 53 44 46 49 51 53 55 62 68 71 62 60 51 48 48 46 43 42 32 34 38 38 41 46 53 62 65 68 69 72 72 65 63 67
48 47 51 51 50 47 47 50 54 59 59 56 50 51 51 48 49 50 47 51 49 65 57 56 55 44 45 45 37 32 32 37 41 40 42 44 51 58 62 66 67 67 66 67
48 50 47 45 41 45 46 55 56 57 61 58 60 58 54 53 50 46 44 46 52 48 46 49 52 47 50 58 51 37 33 31 33 38 44 46 47 54 58 62 61 64 66 74
46 50 49 47 40 37 43 51 54 56 61 61 67 64 62 59 52 51 50 51 55 57 58 60 58 57 57 58 47 40 37 34 37 41 42 45 47 48 52 57 62 65 69 72
43 49 51 47 40 49 55 57 61 65 66 63 65 66 63 57 60 62 61 60 56 59 58 55 66 70 74 60 39 40 34 38 41 45 43 44 44 45 49 53 53 53 54 55